Home > Time Zones > World Clock > Weather > Norway > Sola > Past weeks

Flag for Norway Weather past 2 weeks in Sola, Norway

Now
44 °F

Partly sunny.


Feels Like: 42 °F
Forecast: 38 / 43 °F
Wind: 5 mph from West

Location: Stavanger / Sola

Current Time: Mar 29, 2015 at 11:48:18 AM

Latest Report: Mar 29, 2015 at 11:00 AM


Visibility: 9 mi

Pressure: 29.15 "Hg

Humidity: 87%

Dew point: 40 °F

Location of SolaLocation

Historic Weather in Sola — Graph

°F

Sola temperature yesterday

Maximum temperature yesterday: 44 °F (at 12:00 PM)
Minimum temperature yesterday: 35 °F (at 5:00 AM)
Average temperature yesterday: 40 °F

Past Weeks' High & Low Weather Summary

 TemperatureHumidityPressure
High52 °F (Mar 17, 12:00 PM)98% (Mar 19, 8:00 AM)30.77 "Hg (Mar 19, 8:00 AM)
Low27 °F (Mar 15, 6:00 AM)34% (Mar 21, 3:00 PM)29.18 "Hg (Mar 28, 11:00 PM)
Average42 °F77%30.14 "Hg
* Reported Mar 14 9:00 AM — Mar 29 10:00 AM, Sola, Weather by CustomWeather, © 2015

Note: Actual official high and low records may vary slightly from our data, if they occured in-between our weather recording intervals... More about our weather records

Advertising

Sola weather history for previous 24 hours

 ConditionsComfort  
Time TempWeatherWind HumidityBarometerVisibility
10:00 AM
Sun, Mar 29
43 °FOvercast.3 mph89%29.18 "Hg7 mi
9:00 AM43 °FOvercast.5 mph92%29.18 "Hg7 mi
8:00 AM42 °FOvercast.5 mph92%29.21 "Hg9 mi
7:00 AM41 °FOvercast.3 mph96%29.21 "Hg5 mi
6:00 AM40 °FOvercast.2 mph94%29.21 "Hg11 mi
5:00 AM42 °FRain showers. Overcast.2 mph92%29.21 "Hg11 mi
4:00 AM42 °FOvercast.3 mph90%29.23 "Hg6 mi
3:00 AM43 °FQuite cool.2 mph84%29.23 "Hg7 mi
1:00 AM42 °FOvercast.3 mph94%29.23 "Hg6 mi
12:00 AM42 °FLow clouds.6 mph96%29.21 "Hg2 mi
11:00 PM
Sat, Mar 28
41 °FOvercast.12 mph87%29.18 "Hg6 mi
9:00 PM40 °FOvercast.15 mph79%29.21 "Hg31 mi
8:00 PM39 °FPassing clouds.18 mph82%29.23 "Hg22 mi
7:00 PM38 °FPassing clouds.16 mph85%29.29 "Hg8 mi
6:00 PM38 °FOvercast.16 mph88%29.32 "Hg6 mi
5:00 PM39 °FLight fog.15 mph84%29.38 "Hg6 mi
4:00 PM40 °FPartly sunny.16 mph84%29.47 "Hg6 mi
3:00 PM41 °FLight fog.15 mph76%29.55 "Hg6 mi
2:00 PM44 °FScattered clouds.15 mph63%29.61 "Hg22 mi
1:00 PM44 °FScattered clouds.13 mph65%29.67 "Hg19 mi
12:00 PM44 °FQuite cool.12 mph68%29.72 "Hg19 mi
11:00 AM44 °FQuite cool.12 mph69%29.77 "Hg22 mi
Weather by CustomWeather, © 2015

See weather overviewHow to use our weather pages